SWARM B

Last updated on Mon Oct 27 2025 00:03:41 GMT+0000 (Coordinated Universal Time)

1 39451U 13067A 25299.47222361 .00005863 00000+0 22383-3 0 9995 2 39451 87.7450 53.1674 0002290 101.5012 258.6494 15.26450829647562
UTC large
Height (km)
Speed (km/s)
/
Latitude / Longitude
Inclination (degrees)
Orbital Period (minutes)
Azimuth
Elevation
Range (km)
Doppler Factor

Next 0 passes for location: London (51.5072 / 0.1276)

Sorry there are no passes over London.